THORAD DELTA 1 DEB, 42628

Orbit data source: Space-Track

THORAD DELTA 1 DEB, 42628 is space debris in SSO originally from a launch on Fri, 15 Nov 1974 UTC launched from the Air Force Western Test Range (AFWTR). Debris objects in space refer to the collection of defunct objects orbiting the Earth. Examples of debris include non-operational satellites, rocket bodies, and fragments generated from explosions, collisions, or faulty payload assembly.

Loading next visibility...
Identifier
42628, 1974-089GV
Orbit
SSO
Country
Flag of USUS
Related business
Manufacturer
Unknown
Mission
Spacecraft
Bus & Motor
Unknown
Mass
Unknown
Launch date (UTC)
1974-11-15 (51 years ago)
Launch vehicle
Unknown
Launch site
Air Force Western Test Range (AFWTR)
Object type
Payload
Rocket body
Debris
Shape & HBR
Unknown shape, 0.1 m
Radar Cross Section
Small (<0.1 m²)

Expand to show TLE details & history
Last TLE update: 5 days ago

TLE from 5 days ago
0 THORAD DELTA 1 DEB
1 42628U 74089GV  26030.94161939 -.00000022  00000-0  14890-3 0  9993
2 42628 101.1754 287.7314 0259073 345.1022  14.2499 12.06962879496253
Epoch: 2026-01-30T22:35Z
TLE epoch observation values (Epoch: 2026-01-30T22:35:55.915Z)
Latitude
-0°
Longitude
178.57568°
Altitude
1,451.098 km
Speed
7.226 km/s
True Right ascension
19h 10m 55s
True Declination
0° 00' 00"
Sunlit
Object was in daylight at epoch
Visualization orbit readout
Latitude
Unknown
Longitude
Unknown
Altitude
Unknown
Speed
Unknown
Apparent Right ascension
Unknown
Apparent Declination
Unknown
Sunlit
N/A
Visualization observer readout
Local Sidereal Time
19:44:27
Azimuth
Unknown
Elevation
Unknown
Doppler factor
Unknown
Orbital elements
Apogee altitude
1,855.325 km
Perigee altitude
1,439.485 km
Semi-major axis
8,025.542 km
Eccentricity
0.02591
Inclination
101.1754°
RAAN
287.7314°
Arg. of periapsis
345.1022°
True anomaly
15.00429°
Mean anomaly
14.2499°
Eccentric anomaly
14.62469°
Mean motion
3.01878 °/min
Orbital period
119.25 mins
BSTAR
0.0001489
Loading maneuver chart data...
Computing Atmospheric mass density...

Documentation

Showing up to 5 results
|